| time (UTC) | temp F | wind direction | speed MPH | gust MPH | rain 1hr in | rain 24hr in | rain mn in | humidity % | barometer mb |
| 20260506002535 | 60 | 302 | 2.0 | 4.0 | 0.00 | 0.00 | 0.00 | 66 | 1006.7 |
| 20260506002035 | 60 | 279 | 0.0 | 2.0 | 0.00 | 0.00 | 0.00 | 65 | 1006.7 |
| 20260506001554 | 60 | 0 | 0.0 | 2.0 | 0.00 | 0.00 | 0.00 | 65 | 1006.6 |
| 20260506001036 | 60 | 0 | 0.0 | 0.0 | 0.00 | 0.00 | 0.00 | 65 | 1006.6 |
| 20260506000535 | 60 | 0 | 0.0 | 0.0 | 0.00 | 0.00 | 0.00 | 65 | 1006.7 |
| 20260506000054 | 59 | 0 | 0.0 | 0.0 | 0.00 | 0.00 | 0.00 | 66 | 1006.6 |
| 20260505235535 | 59 | 0 | 0.0 | 1.0 | 0.00 | 0.00 | 0.00 | 66 | 1006.4 |
| 20260505235037 | 60 | 0 | 0.0 | 1.0 | 0.00 | 0.00 | 0.00 | 65 | 1006.3 |
| 20260505234546 | 59 | 0 | 0.0 | 1.0 | 0.00 | 0.00 | 0.00 | 65 | 1006.4 |
| 20260505234035 | 60 | 0 | 0.0 | 0.0 | 0.00 | 0.00 | 0.00 | 65 | 1006.4 |
| 20260505233541 | 60 | 0 | 0.0 | 0.0 | 0.00 | 0.00 | 0.00 | 65 | 1006.2 |
| 20260505233056 | 60 | 0 | 0.0 | 0.0 | 0.00 | 0.00 | 0.00 | 64 | 1006.2 |
| 20260505232536 | 60 | 0 | 0.0 | 0.0 | 0.00 | 0.00 | 0.00 | 64 | 1006.1 |
| 20260505232036 | 59 | 0 | 0.0 | 0.0 | 0.00 | 0.00 | 0.00 | 65 | 1006.1 |
| 20260505231552 | 59 | 0 | 0.0 | 0.0 | 0.00 | 0.00 | 0.00 | 65 | 1006.0 |
| 20260505231036 | 59 | 0 | 0.0 | 0.0 | 0.00 | 0.00 | 0.00 | 64 | 1006.0 |
| 20260505230536 | 60 | 0 | 0.0 | 3.0 | 0.00 | 0.00 | 0.00 | 64 | 1005.9 |
| 20260505230112 | 60 | 0 | 0.0 | 3.0 | 0.00 | 0.00 | 0.00 | 64 | 1005.9 |
| 20260505225536 | 60 | 112 | 0.0 | 3.0 | 0.00 | 0.00 | 0.00 | 64 | 1005.9 |
| 20260505225035 | 60 | 119 | 0.0 | 2.0 | 0.00 | 0.00 | 0.00 | 64 | 1005.8 |
| 20260505224545 | 60 | 0 | 0.0 | 0.0 | 0.00 | 0.00 | 0.00 | 63 | 1005.7 |
| 20260505224036 | 60 | 0 | 0.0 | 0.0 | 0.00 | 0.00 | 0.00 | 62 | 1005.6 |
| 20260505223535 | 60 | 0 | 0.0 | 0.0 | 0.00 | 0.00 | 0.00 | 63 | 1005.6 |
| 20260505223047 | 60 | 0 | 0.0 | 0.0 | 0.00 | 0.00 | 0.00 | 63 | 1005.5 |
| 20260505222536 | 60 | 0 | 0.0 | 1.0 | 0.00 | 0.00 | 0.00 | 63 | 1005.4 |
| 20260505222040 | 60 | 0 | 0.0 | 1.0 | 0.00 | 0.00 | 0.00 | 62 | 1005.4 |
| 20260505221557 | 60 | 0 | 0.0 | 3.0 | 0.00 | 0.00 | 0.00 | 62 | 1005.4 |
| 20260505221037 | 61 | 121 | 0.0 | 3.0 | 0.00 | 0.00 | 0.00 | 61 | 1005.3 |
| 20260505220536 | 61 | 121 | 0.0 | 3.0 | 0.00 | 0.00 | 0.00 | 60 | 1005.2 |
| 20260505220056 | 61 | 0 | 0.0 | 0.0 | 0.00 | 0.00 | 0.00 | 60 | 1005.2 |
| 20260505215537 | 61 | 0 | 0.0 | 2.0 | 0.00 | 0.00 | 0.00 | 60 | 1005.2 |
| 20260505215036 | 61 | 0 | 0.0 | 2.0 | 0.00 | 0.00 | 0.00 | 59 | 1005.0 |
| 20260505214548 | 62 | 0 | 0.0 | 2.0 | 0.00 | 0.00 | 0.00 | 59 | 1005.0 |
| 20260505214035 | 62 | 0 | 0.0 | 3.0 | 0.00 | 0.00 | 0.00 | 59 | 1004.9 |
| 20260505213536 | 62 | 122 | 0.0 | 3.0 | 0.00 | 0.00 | 0.00 | 59 | 1004.9 |
| 20260505213053 | 62 | 0 | 0.0 | 2.0 | 0.00 | 0.00 | 0.00 | 59 | 1004.9 |
| 20260505212535 | 62 | 0 | 0.0 | 3.0 | 0.00 | 0.00 | 0.00 | 59 | 1004.9 |
| 20260505212036 | 62 | 0 | 0.0 | 6.0 | 0.00 | 0.00 | 0.00 | 58 | 1004.8 |
| 20260505211600 | 62 | 118 | 1.0 | 6.0 | 0.00 | 0.00 | 0.00 | 58 | 1004.8 |
| 20260505211036 | 62 | 117 | 2.0 | 6.0 | 0.00 | 0.00 | 0.00 | 58 | 1004.7 |
| 20260505210535 | 63 | 122 | 2.0 | 5.0 | 0.00 | 0.00 | 0.00 | 57 | 1004.8 |
| 20260505210056 | 63 | 109 | 1.0 | 3.0 | 0.00 | 0.00 | 0.00 | 57 | 1004.8 |
| 20260505205535 | 63 | 113 | 0.0 | 3.0 | 0.00 | 0.00 | 0.00 | 56 | 1004.7 |
| 20260505205035 | 64 | 113 | 1.0 | 5.0 | 0.00 | 0.00 | 0.00 | 56 | 1004.6 |
| 20260505204550 | 64 | 117 | 1.0 | 8.0 | 0.00 | 0.00 | 0.00 | 56 | 1004.6 |
| 20260505204034 | 64 | 134 | 2.0 | 8.0 | 0.00 | 0.00 | 0.00 | 56 | 1004.2 |
| 20260505203534 | 64 | 360 | 2.0 | 8.0 | 0.00 | 0.00 | 0.00 | 56 | 1004.2 |
| 20260505203043 | 64 | 115 | 1.0 | 8.0 | 0.00 | 0.00 | 0.00 | 56 | 1004.2 |
| 20260505202534 | 64 | 116 | 3.0 | 8.0 | 0.00 | 0.00 | 0.00 | 55 | 1004.0 |
| 20260505202034 | 64 | 118 | 2.0 | 9.0 | 0.00 | 0.00 | 0.00 | 55 | 1004.1 |
| 20260505201549 | 64 | 119 | 2.0 | 9.0 | 0.00 | 0.00 | 0.00 | 55 | 1004.0 |
| 20260505201038 | 64 | 0 | 4.0 | 9.0 | 0.00 | 0.00 | 0.00 | 54 | 1004.0 |
| 20260505200534 | 65 | 117 | 2.0 | 11.0 | 0.00 | 0.00 | 0.00 | 54 | 1004.0 |
| 20260505200056 | 65 | 117 | 4.0 | 11.0 | 0.00 | 0.00 | 0.00 | 54 | 1003.9 |
| 20260505195536 | 65 | 131 | 2.0 | 9.0 | 0.00 | 0.00 | 0.00 | 54 | 1004.0 |
| 20260505195035 | 65 | 0 | 2.0 | 11.0 | 0.00 | 0.00 | 0.00 | 54 | 1003.9 |
| 20260505194549 | 65 | 123 | 3.0 | 11.0 | 0.00 | 0.00 | 0.00 | 53 | 1004.0 |
| 20260505194035 | 65 | 123 | 4.0 | 9.0 | 0.00 | 0.00 | 0.00 | 53 | 1003.9 |
| 20260505193536 | 65 | 115 | 2.0 | 10.0 | 0.00 | 0.00 | 0.00 | 53 | 1004.0 |
| 20260505193059 | 65 | 119 | 2.0 | 11.0 | 0.00 | 0.00 | 0.00 | 52 | 1003.9 |
| 20260505192536 | 66 | 131 | 4.0 | 12.0 | 0.00 | 0.00 | 0.00 | 52 | 1003.9 |
| 20260505192033 | 66 | 132 | 3.0 | 12.0 | 0.00 | 0.00 | 0.00 | 52 | 1003.8 |
| 20260505191549 | 66 | 117 | 3.0 | 11.0 | 0.00 | 0.00 | 0.00 | 52 | 1003.8 |
| 20260505191038 | 66 | 153 | 4.0 | 11.0 | 0.00 | 0.00 | 0.00 | 51 | 1003.8 |
| 20260505190538 | 66 | 103 | 4.0 | 13.0 | 0.00 | 0.00 | 0.00 | 51 | 1003.8 |
| 20260505190052 | 66 | 108 | 4.0 | 13.0 | 0.00 | 0.00 | 0.00 | 51 | 1003.9 |
| 20260505185536 | 66 | 119 | 5.0 | 13.0 | 0.00 | 0.00 | 0.00 | 51 | 1003.9 |
| 20260505185034 | 67 | 117 | 4.0 | 12.0 | 0.00 | 0.00 | 0.00 | 51 | 1003.9 |
| 20260505184551 | 67 | 100 | 3.0 | 12.0 | 0.00 | 0.00 | 0.00 | 50 | 1003.9 |
| 20260505184035 | 67 | 109 | 4.0 | 12.0 | 0.00 | 0.00 | 0.00 | 50 | 1003.8 |
| 20260505183537 | 67 | 118 | 4.0 | 13.0 | 0.00 | 0.00 | 0.00 | 50 | 1003.8 |
| 20260505183045 | 67 | 125 | 5.0 | 13.0 | 0.00 | 0.00 | 0.00 | 49 | 1003.7 |
| 20260505182535 | 67 | 193 | 5.0 | 13.0 | 0.00 | 0.00 | 0.00 | 49 | 1003.8 |
| 20260505182035 | 68 | 155 | 4.0 | 17.0 | 0.00 | 0.00 | 0.00 | 48 | 1003.9 |
| 20260505181554 | 68 | 136 | 5.0 | 17.0 | 0.00 | 0.00 | 0.00 | 48 | 1003.8 |
| 20260505181035 | 68 | 131 | 7.0 | 17.0 | 0.00 | 0.00 | 0.00 | 48 | 1003.9 |
| 20260505180535 | 68 | 150 | 7.0 | 16.0 | 0.00 | 0.00 | 0.00 | 47 | 1003.8 |
| 20260505180054 | 69 | 130 | 5.0 | 18.0 | 0.00 | 0.00 | 0.00 | 47 | 1003.8 |
| 20260505175534 | 69 | 119 | 6.0 | 18.0 | 0.00 | 0.00 | 0.00 | 46 | 1003.9 |
| 20260505175034 | 69 | 119 | 7.0 | 16.0 | 0.00 | 0.00 | 0.00 | 46 | 1003.8 |
| 20260505174603 | 70 | 119 | 6.0 | 14.0 | 0.00 | 0.00 | 0.00 | 45 | 1003.8 |
| 20260505174035 | 70 | 159 | 4.0 | 15.0 | 0.00 | 0.00 | 0.00 | 45 | 1003.8 |
| 20260505173536 | 71 | 124 | 6.0 | 15.0 | 0.00 | 0.00 | 0.00 | 44 | 1003.9 |
| 20260505173047 | 71 | 121 | 3.0 | 24.0 | 0.00 | 0.00 | 0.00 | 44 | 1003.8 |
| 20260505172535 | 71 | 125 | 5.0 | 24.0 | 0.00 | 0.00 | 0.00 | 44 | 1003.9 |
| 20260505172038 | 72 | 161 | 7.0 | 24.0 | 0.00 | 0.00 | 0.00 | 43 | 1003.8 |
| 20260505171548 | 72 | 128 | 9.0 | 20.0 | 0.00 | 0.00 | 0.00 | 43 | 1003.8 |
| 20260505171036 | 72 | 136 | 6.0 | 19.0 | 0.00 | 0.00 | 0.00 | 43 | 1003.9 |
| 20260505170536 | 73 | 146 | 6.0 | 19.0 | 0.00 | 0.00 | 0.00 | 42 | 1004.1 |
| 20260505170046 | 73 | 121 | 6.0 | 20.0 | 0.00 | 0.00 | 0.00 | 42 | 1003.9 |
| 20260505165538 | 73 | 153 | 9.0 | 20.0 | 0.00 | 0.00 | 0.00 | 41 | 1003.9 |
| 20260505165035 | 74 | 126 | 7.0 | 19.0 | 0.00 | 0.00 | 0.00 | 42 | 1004.0 |
| 20260505164550 | 73 | 111 | 8.0 | 19.0 | 0.00 | 0.00 | 0.00 | 42 | 1003.9 |
| 20260505164035 | 73 | 155 | 6.0 | 18.0 | 0.00 | 0.00 | 0.00 | 43 | 1003.9 |
| 20260505163534 | 73 | 151 | 5.0 | 21.0 | 0.00 | 0.00 | 0.00 | 43 | 1004.1 |
| 20260505163054 | 73 | 148 | 6.0 | 24.0 | 0.00 | 0.00 | 0.00 | 42 | 1004.0 |
| 20260505162536 | 73 | 155 | 9.0 | 24.0 | 0.00 | 0.00 | 0.00 | 42 | 1004.2 |
| 20260505162035 | 74 | 138 | 8.0 | 24.0 | 0.00 | 0.00 | 0.00 | 41 | 1004.0 |
| 20260505161548 | 74 | 138 | 9.0 | 23.0 | 0.00 | 0.00 | 0.00 | 41 | 1004.2 |
| 20260505161036 | 74 | 155 | 7.0 | 19.0 | 0.00 | 0.00 | 0.00 | 41 | 1004.2 |
| 20260505160536 | 74 | 137 | 6.0 | 24.0 | 0.00 | 0.00 | 0.00 | 41 | 1004.1 |
| 20260505153047 | 76 | 139 | 5.0 | 16.0 | 0.00 | 0.00 | 0.00 | 39 | 1004.2 |
| 20260505152535 | 76 | 142 | 8.0 | 23.0 | 0.00 | 0.00 | 0.00 | 39 | 1004.3 |
| 20260505152035 | 76 | 139 | 6.0 | 23.0 | 0.00 | 0.00 | 0.00 | 38 | 1004.2 |
| 20260505151549 | 77 | 144 | 9.0 | 24.0 | 0.00 | 0.00 | 0.00 | 38 | 1004.2 |
| 20260505151035 | 78 | 127 | 10.0 | 24.0 | 0.00 | 0.00 | 0.00 | 37 | 1004.3 |
| 20260505150536 | 78 | 192 | 6.0 | 23.0 | 0.00 | 0.00 | 0.00 | 36 | 1004.3 |
| 20260505140535 | 82 | 140 | 10.0 | 21.0 | 0.00 | 0.00 | 0.00 | 31 | 1004.5 |
| 20260505125037 | 83 | 117 | 5.0 | 19.0 | 0.00 | 0.00 | 0.00 | 25 | 1005.2 |
| 20260505124551 | 83 | 152 | 6.0 | 21.0 | 0.00 | 0.00 | 0.00 | 25 | 1005.3 |
| 20260505124035 | 82 | 108 | 10.0 | 21.0 | 0.00 | 0.00 | 0.00 | 25 | 1005.3 |
| 20260505123536 | 83 | 124 | 9.0 | 23.0 | 0.00 | 0.00 | 0.00 | 24 | 1005.3 |
| 20260505123056 | 83 | 107 | 7.0 | 23.0 | 0.00 | 0.00 | 0.00 | 25 | 1005.5 |
| 20260505122536 | 83 | 114 | 8.0 | 20.0 | 0.00 | 0.00 | 0.00 | 25 | 1005.4 |
| 20260505122034 | 83 | 113 | 7.0 | 20.0 | 0.00 | 0.00 | 0.00 | 24 | 1005.5 |
| 20260505121552 | 83 | 131 | 8.0 | 21.0 | 0.00 | 0.00 | 0.00 | 24 | 1005.5 |
| 20260505121038 | 83 | 112 | 7.0 | 21.0 | 0.00 | 0.00 | 0.00 | 25 | 1005.6 |
| 20260505120534 | 82 | 149 | 7.0 | 21.0 | 0.00 | 0.00 | 0.00 | 24 | 1005.7 |
| 20260505120051 | 83 | 115 | 6.0 | 18.0 | 0.00 | 0.00 | 0.00 | 24 | 1005.9 |
| 20260505115535 | 82 | 136 | 7.0 | 20.0 | 0.00 | 0.00 | 0.00 | 25 | 1005.9 |
| 20260505115034 | 82 | 129 | 4.0 | 20.0 | 0.00 | 0.00 | 0.00 | 25 | 1005.9 |
| 20260505114552 | 81 | 117 | 10.0 | 20.0 | 0.00 | 0.00 | 0.00 | 26 | 1006.1 |
| 20260505114036 | 81 | 126 | 5.0 | 20.0 | 0.00 | 0.00 | 0.00 | 27 | 1006.1 |
| 20260505113535 | 81 | 132 | 9.0 | 20.0 | 0.00 | 0.00 | 0.00 | 26 | 1006.2 |
| 20260505113100 | 82 | 117 | 7.0 | 19.0 | 0.00 | 0.00 | 0.00 | 28 | 1006.2 |
| 20260505112537 | 81 | 117 | 7.0 | 19.0 | 0.00 | 0.00 | 0.00 | 28 | 1006.3 |
| 20260505112035 | 81 | 110 | 8.0 | 20.0 | 0.00 | 0.00 | 0.00 | 28 | 1006.1 |
| 20260505111546 | 81 | 130 | 9.0 | 20.0 | 0.00 | 0.00 | 0.00 | 28 | 1006.2 |
| 20260505111036 | 81 | 89 | 7.0 | 17.0 | 0.00 | 0.00 | 0.00 | 27 | 1006.2 |
| 20260505110535 | 81 | 92 | 8.0 | 18.0 | 0.00 | 0.00 | 0.00 | 27 | 1006.4 |
| 20260505102035 | 74 | 78 | 2.0 | 7.0 | 0.00 | 0.00 | 0.00 | 44 | 1007.4 |
| 20260505101551 | 73 | 19 | 2.0 | 7.0 | 0.00 | 0.00 | 0.00 | 47 | 1007.4 |
| 20260505101036 | 72 | 0 | 1.0 | 4.0 | 0.00 | 0.00 | 0.00 | 47 | 1007.6 |
| 20260505100538 | 72 | 110 | 0.0 | 6.0 | 0.00 | 0.00 | 0.00 | 48 | 1007.6 |
| 20260505100048 | 72 | 0 | 0.0 | 7.0 | 0.00 | 0.00 | 0.00 | 48 | 1007.8 |
| 20260505095538 | 72 | 119 | 1.0 | 10.0 | 0.00 | 0.00 | 0.00 | 47 | 1007.9 |
| 20260505095035 | 72 | 96 | 4.0 | 10.0 | 0.00 | 0.00 | 0.00 | 46 | 1008.0 |
| 20260505094614 | 71 | 128 | 2.0 | 8.0 | 0.00 | 0.00 | 0.00 | 47 | 1008.0 |
| 20260505094035 | 71 | 94 | 3.0 | 8.0 | 0.00 | 0.00 | 0.00 | 46 | 1008.2 |
| 20260505093538 | 70 | 118 | 1.0 | 7.0 | 0.00 | 0.00 | 0.00 | 49 | 1008.2 |
| 20260505093057 | 70 | 98 | 1.0 | 7.0 | 0.00 | 0.00 | 0.00 | 49 | 1008.3 |
| 20260505092539 | 71 | 118 | 2.0 | 6.0 | 0.00 | 0.00 | 0.00 | 49 | 1008.4 |
| 20260505092037 | 70 | 96 | 0.0 | 8.0 | 0.00 | 0.00 | 0.00 | 49 | 1008.5 |
| 20260505091549 | 69 | 118 | 2.0 | 8.0 | 0.00 | 0.00 | 0.00 | 50 | 1008.6 |
| 20260505091035 | 69 | 93 | 3.0 | 8.0 | 0.00 | 0.00 | 0.00 | 50 | 1008.6 |
| 20260505090535 | 69 | 0 | 2.0 | 7.0 | 0.00 | 0.00 | 0.00 | 49 | 1008.6 |
| 20260505090053 | 68 | 73 | 1.0 | 7.0 | 0.00 | 0.00 | 0.00 | 51 | 1008.6 |
| 20260505085536 | 68 | 124 | 1.0 | 6.0 | 0.00 | 0.00 | 0.00 | 51 | 1008.6 |
| 20260505085035 | 68 | 141 | 2.0 | 7.0 | 0.00 | 0.00 | 0.00 | 53 | 1008.7 |
| 20260505084554 | 67 | 109 | 3.0 | 7.0 | 0.00 | 0.00 | 0.00 | 52 | 1008.7 |
| 20260505084035 | 66 | 107 | 0.0 | 6.0 | 0.00 | 0.00 | 0.00 | 55 | 1008.8 |
| 20260505083535 | 66 | 109 | 1.0 | 6.0 | 0.00 | 0.00 | 0.00 | 53 | 1008.8 |
| 20260505083100 | 66 | 115 | 1.0 | 7.0 | 0.00 | 0.00 | 0.00 | 53 | 1008.8 |
| 20260505082536 | 66 | 134 | 1.0 | 7.0 | 0.00 | 0.00 | 0.00 | 54 | 1008.8 |
| 20260505082035 | 66 | 108 | 2.0 | 6.0 | 0.00 | 0.00 | 0.00 | 53 | 1008.8 |
| 20260505081556 | 66 | 98 | 1.0 | 4.0 | 0.00 | 0.00 | 0.00 | 54 | 1008.9 |
| 20260505081037 | 65 | 118 | 1.0 | 7.0 | 0.00 | 0.00 | 0.00 | 56 | 1008.9 |
| 20260505080535 | 65 | 0 | 1.0 | 7.0 | 0.00 | 0.00 | 0.00 | 55 | 1008.9 |
| 20260505080050 | 65 | 77 | 2.0 | 7.0 | 0.00 | 0.00 | 0.00 | 54 | 1008.9 |
| 20260505075535 | 65 | 109 | 2.0 | 6.0 | 0.00 | 0.00 | 0.00 | 57 | 1008.8 |
| 20260505075035 | 63 | 75 | 1.0 | 4.0 | 0.00 | 0.00 | 0.00 | 58 | 1008.8 |
| 20260505074549 | 64 | 114 | 1.0 | 5.0 | 0.00 | 0.00 | 0.00 | 58 | 1008.9 |
| 20260505074038 | 63 | 0 | 1.0 | 6.0 | 0.00 | 0.00 | 0.00 | 58 | 1009.0 |
| 20260505073535 | 63 | 130 | 2.0 | 6.0 | 0.00 | 0.00 | 0.00 | 59 | 1009.0 |
| 20260505073053 | 63 | 99 | 1.0 | 4.0 | 0.00 | 0.00 | 0.00 | 61 | 1009.1 |
| 20260505072538 | 62 | 115 | 0.0 | 4.0 | 0.00 | 0.00 | 0.00 | 62 | 1009.2 |
| 20260505072034 | 61 | 0 | 0.0 | 4.0 | 0.00 | 0.00 | 0.00 | 62 | 1009.1 |
| 20260505071552 | 61 | 101 | 1.0 | 4.0 | 0.00 | 0.00 | 0.00 | 63 | 1009.1 |
| 20260505071035 | 60 | 46 | 2.0 | 4.0 | 0.00 | 0.00 | 0.00 | 63 | 1009.1 |
| 20260505070536 | 59 | 44 | 0.0 | 3.0 | 0.00 | 0.00 | 0.00 | 64 | 1009.2 |
| 20260505070048 | 59 | 89 | 0.0 | 3.0 | 0.00 | 0.00 | 0.00 | 63 | 1009.1 |
| 20260505065536 | 59 | 104 | 0.0 | 3.0 | 0.00 | 0.00 | 0.00 | 65 | 1009.2 |
| 20260505065034 | 58 | 0 | 0.0 | 3.0 | 0.00 | 0.00 | 0.00 | 66 | 1009.2 |
| 20260505064550 | 58 | 0 | 1.0 | 3.0 | 0.00 | 0.00 | 0.00 | 65 | 1009.2 |
| 20260505064035 | 58 | 110 | 0.0 | 3.0 | 0.00 | 0.00 | 0.00 | 66 | 1009.1 |
| 20260505063535 | 58 | 0 | 0.0 | 4.0 | 0.00 | 0.00 | 0.00 | 66 | 1009.0 |
| 20260505063051 | 58 | 113 | 1.0 | 6.0 | 0.00 | 0.00 | 0.00 | 65 | 1009.0 |
| 20260505062538 | 58 | 114 | 0.0 | 6.0 | 0.00 | 0.00 | 0.00 | 66 | 1009.1 |
| 20260505062038 | 58 | 114 | 2.0 | 6.0 | 0.00 | 0.00 | 0.00 | 65 | 1009.1 |
| 20260505061554 | 58 | 111 | 1.0 | 4.0 | 0.00 | 0.00 | 0.00 | 65 | 1009.0 |
| 20260505061035 | 58 | 0 | 1.0 | 4.0 | 0.00 | 0.00 | 0.00 | 65 | 1008.9 |
| 20260505060536 | 58 | 103 | 0.0 | 2.0 | 0.00 | 0.00 | 0.00 | 65 | 1008.9 |
| 20260505060052 | 58 | 0 | 0.0 | 2.0 | 0.00 | 0.00 | 0.00 | 66 | 1008.9 |
| 20260505055536 | 58 | 0 | 0.0 | 3.0 | 0.00 | 0.00 | 0.00 | 66 | 1008.9 |
| 20260505055036 | 57 | 0 | 0.0 | 3.0 | 0.00 | 0.00 | 0.00 | 67 | 1008.9 |
| 20260505054556 | 57 | 0 | 1.0 | 3.0 | 0.00 | 0.00 | 0.00 | 67 | 1008.8 |
| 20260505054037 | 57 | 0 | 0.0 | 3.0 | 0.00 | 0.00 | 0.00 | 67 | 1008.9 |
| 20260505053536 | 57 | 97 | 0.0 | 3.0 | 0.00 | 0.00 | 0.00 | 68 | 1008.9 |
| 20260505053051 | 56 | 0 | 0.0 | 0.0 | 0.00 | 0.00 | 0.00 | 69 | 1008.8 |
| 20260505052536 | 56 | 0 | 0.0 | 0.0 | 0.00 | 0.00 | 0.00 | 68 | 1008.8 |
| 20260505052036 | 56 | 0 | 0.0 | 0.0 | 0.00 | 0.00 | 0.00 | 69 | 1008.8 |
| 20260505051544 | 55 | 0 | 0.0 | 0.0 | 0.00 | 0.00 | 0.00 | 71 | 1008.8 |
| 20260505051036 | 55 | 0 | 0.0 | 0.0 | 0.00 | 0.00 | 0.00 | 72 | 1008.8 |
| 20260505050536 | 54 | 0 | 0.0 | 0.0 | 0.00 | 0.00 | 0.00 | 73 | 1008.9 |
| 20260505041549 | 53 | 0 | 0.0 | 0.0 | 0.00 | 0.00 | 0.00 | 76 | 1008.7 |
| 20260505041037 | 52 | 0 | 0.0 | 0.0 | 0.00 | 0.00 | 0.00 | 76 | 1008.7 |
| 20260505040536 | 52 | 0 | 0.0 | 0.0 | 0.00 | 0.00 | 0.00 | 76 | 1008.7 |
| 20260505035536 | 52 | 0 | 0.0 | 0.0 | 0.00 | 0.00 | 0.00 | 76 | 1008.9 |
| 20260505035036 | 52 | 0 | 0.0 | 0.0 | 0.00 | 0.00 | 0.00 | 76 | 1008.8 |
| 20260505034552 | 52 | 0 | 0.0 | 0.0 | 0.00 | 0.00 | 0.00 | 75 | 1008.8 |
| 20260505034035 | 52 | 0 | 0.0 | 0.0 | 0.00 | 0.00 | 0.00 | 75 | 1008.8 |
| 20260505033536 | 52 | 0 | 0.0 | 0.0 | 0.00 | 0.00 | 0.00 | 75 | 1008.9 |
| 20260505033049 | 52 | 0 | 0.0 | 0.0 | 0.00 | 0.00 | 0.00 | 75 | 1008.9 |
| 20260505032540 | 53 | 0 | 0.0 | 0.0 | 0.00 | 0.00 | 0.00 | 75 | 1008.9 |
| 20260505032035 | 53 | 0 | 0.0 | 0.0 | 0.00 | 0.00 | 0.00 | 75 | 1008.8 |
| 20260505031557 | 53 | 0 | 0.0 | 0.0 | 0.00 | 0.00 | 0.00 | 75 | 1008.8 |
| 20260505031036 | 53 | 0 | 0.0 | 0.0 | 0.00 | 0.00 | 0.00 | 74 | 1008.8 |
| 20260505030537 | 53 | 0 | 0.0 | 0.0 | 0.00 | 0.00 | 0.00 | 74 | 1008.9 |
| 20260505025537 | 53 | 0 | 0.0 | 0.0 | 0.00 | 0.00 | 0.00 | 73 | 1009.0 |
| 20260505025036 | 53 | 0 | 0.0 | 0.0 | 0.00 | 0.00 | 0.00 | 73 | 1009.0 |
| 20260505024551 | 53 | 0 | 0.0 | 0.0 | 0.00 | 0.00 | 0.00 | 73 | 1009.0 |
| 20260505024035 | 53 | 0 | 0.0 | 0.0 | 0.00 | 0.00 | 0.00 | 73 | 1009.0 |
| 20260505023536 | 53 | 0 | 0.0 | 0.0 | 0.00 | 0.00 | 0.00 | 73 | 1009.0 |
| 20260505023048 | 53 | 0 | 0.0 | 0.0 | 0.00 | 0.00 | 0.00 | 73 | 1009.0 |
| 20260505022536 | 53 | 0 | 0.0 | 0.0 | 0.00 | 0.00 | 0.00 | 73 | 1009.0 |
| 20260505022035 | 53 | 0 | 0.0 | 0.0 | 0.00 | 0.00 | 0.00 | 72 | 1009.0 |
| 20260505021550 | 54 | 0 | 0.0 | 0.0 | 0.00 | 0.00 | 0.00 | 72 | 1009.1 |
| 20260505021035 | 54 | 0 | 0.0 | 0.0 | 0.00 | 0.00 | 0.00 | 72 | 1009.2 |
| 20260505020535 | 54 | 0 | 0.0 | 0.0 | 0.00 | 0.00 | 0.00 | 72 | 1009.2 |
| 20260505020055 | 54 | 0 | 0.0 | 0.0 | 0.00 | 0.00 | 0.00 | 72 | 1009.2 |
| 20260505015535 | 54 | 0 | 0.0 | 0.0 | 0.00 | 0.00 | 0.00 | 71 | 1009.2 |
| 20260505015035 | 54 | 0 | 0.0 | 0.0 | 0.00 | 0.00 | 0.00 | 71 | 1009.2 |
| 20260505014604 | 54 | 0 | 0.0 | 0.0 | 0.00 | 0.00 | 0.00 | 70 | 1009.2 |
| 20260505014037 | 55 | 0 | 0.0 | 0.0 | 0.00 | 0.00 | 0.00 | 69 | 1009.2 |
| 20260505013534 | 55 | 0 | 0.0 | 0.0 | 0.00 | 0.00 | 0.00 | 69 | 1009.2 |
| 20260505013051 | 55 | 0 | 0.0 | 0.0 | 0.00 | 0.00 | 0.00 | 69 | 1009.2 |
| 20260505012534 | 55 | 0 | 0.0 | 0.0 | 0.00 | 0.00 | 0.00 | 68 | 1009.3 |
| 20260505012036 | 55 | 0 | 0.0 | 0.0 | 0.00 | 0.00 | 0.00 | 68 | 1009.3 |
| 20260505011551 | 55 | 0 | 0.0 | 0.0 | 0.00 | 0.00 | 0.00 | 67 | 1009.3 |
| 20260505011036 | 56 | 0 | 0.0 | 0.0 | 0.00 | 0.00 | 0.00 | 67 | 1009.3 |
| 20260505010535 | 56 | 0 | 0.0 | 0.0 | 0.00 | 0.00 | 0.00 | 66 | 1009.4 |
| 20260505010052 | 56 | 0 | 0.0 | 0.0 | 0.00 | 0.00 | 0.00 | 65 | 1009.4 |
| 20260505005536 | 56 | 0 | 0.0 | 0.0 | 0.00 | 0.00 | 0.00 | 65 | 1009.4 |
| 20260505005035 | 57 | 0 | 0.0 | 0.0 | 0.00 | 0.00 | 0.00 | 64 | 1009.3 |
| 20260505004556 | 57 | 0 | 0.0 | 0.0 | 0.00 | 0.00 | 0.00 | 63 | 1009.5 |
| 20260505004034 | 57 | 0 | 0.0 | 0.0 | 0.00 | 0.00 | 0.00 | 63 | 1009.4 |
| 20260505003535 | 57 | 0 | 0.0 | 0.0 | 0.00 | 0.00 | 0.00 | 63 | 1009.4 |
| 20260505003047 | 57 | 0 | 0.0 | 0.0 | 0.00 | 0.00 | 0.00 | 62 | 1009.5 |